timestamp,surface_pressure_avg,surface_temp_avg,battery_voltage,lat,long
2022-11-20 00:09:00+00:00,262.7147,8.35,12.65,47.84626,-54.09684
2022-11-20 00:19:01+00:00,259.3164,8.35,12.65,47.84626,-54.09684
2022-11-20 00:29:01+00:00,244.4448,8.38,12.65,47.84626,-54.09684
2022-11-20 00:39:01+00:00,237.3264,8.3,12.65,47.84626,-54.09684
2022-11-20 00:49:01+00:00,240.6864,8.2,12.65,47.84626,-54.09684
2022-11-20 00:59:01+00:00,234.7564,8.1,12.65,47.84626,-54.09684
2022-11-20 01:09:01+00:00,225.3964,7.85,12.65,47.84626,-54.09684
2022-11-20 01:19:01+00:00,223.4781,7.73,12.65,47.84626,-54.09684
2022-11-20 01:29:01+00:00,220.9048,7.99,12.65,47.84626,-54.09684
2022-11-20 01:39:01+00:00,213.6314,8.0,12.65,47.84626,-54.09684
2022-11-20 01:49:01+00:00,211.4514,7.95,12.65,47.84626,-54.09684
2022-11-20 01:59:01+00:00,212.9247,8.26,12.65,47.84626,-54.09684
2022-11-20 02:09:01+00:00,214.4365,8.38,12.65,47.84626,-54.09684
2022-11-20 02:19:01+00:00,213.8814,8.4,12.57,47.84626,-54.09684
2022-11-20 02:29:01+00:00,211.2731,8.4,12.57,47.84626,-54.09684
2022-11-20 02:39:01+00:00,214.9148,8.4,12.57,47.84626,-54.09684
2022-11-20 02:49:01+00:00,216.6198,8.4,12.57,47.84626,-54.09684
2022-11-20 02:59:01+00:00,214.5314,8.47,12.57,47.84626,-54.09684
2022-11-20 03:09:01+00:00,217.6131,8.5,12.57,47.84626,-54.09684
2022-11-20 03:19:01+00:00,221.4881,8.5,12.57,47.84626,-54.09684
2022-11-20 03:29:01+00:00,218.2047,8.49,12.57,47.84626,-54.09684
2022-11-20 03:39:01+00:00,219.1515,8.41,12.57,47.84626,-54.09684
2022-11-20 03:49:01+00:00,229.103,8.49,12.57,47.84626,-54.09684
2022-11-20 03:59:01+00:00,229.3515,8.5,12.57,47.84626,-54.09684
2022-11-20 04:09:01+00:00,228.1298,8.4,12.57,47.84626,-54.09684
2022-11-20 04:19:00+00:00,234.3231,8.4,12.57,47.84626,-54.09684
2022-11-20 04:29:00+00:00,236.2031,8.4,12.57,47.84626,-54.09684
2022-11-20 04:39:00+00:00,231.9814,8.4,12.57,47.84626,-54.09684
2022-11-20 04:49:00+00:00,236.9964,8.4,12.57,47.84626,-54.09684
2022-11-20 04:59:00+00:00,249.4447,8.4,12.57,47.84626,-54.09684
2022-11-20 05:09:00+00:00,253.7231,8.43,12.57,47.84626,-54.09684
2022-11-20 05:19:01+00:00,255.1148,8.49,12.57,47.84626,-54.09684
2022-11-20 05:29:01+00:00,265.5897,8.4,12.57,47.84626,-54.09684
2022-11-20 05:39:01+00:00,273.4514,8.4,12.57,47.84626,-54.09684
2022-11-20 05:49:01+00:00,269.4698,8.4,12.57,47.84626,-54.09684
2022-11-20 05:59:01+00:00,271.0147,8.4,12.57,47.84626,-54.09684
2022-11-20 06:09:01+00:00,285.5431,8.47,12.57,47.84626,-54.09684
2022-11-20 06:19:00+00:00,289.553,8.4,12.57,47.84626,-54.09684
2022-11-20 06:29:00+00:00,286.0197,8.3,12.57,47.84626,-54.09684
2022-11-20 06:39:00+00:00,296.1198,8.36,12.57,47.84626,-54.09684
2022-11-20 06:49:00+00:00,308.4313,8.3,12.57,47.84626,-54.09684
2022-11-20 06:59:00+00:00,303.3896,8.3,12.57,47.84626,-54.09684
2022-11-20 07:09:00+00:00,305.163,8.21,12.57,47.84626,-54.09684
2022-11-20 07:19:00+00:00,312.1597,8.22,12.57,47.84626,-54.09684
2022-11-20 07:29:00+00:00,317.123,8.31,12.57,47.84626,-54.09684
2022-11-20 07:39:00+00:00,309.2297,8.37,12.57,47.84626,-54.09684
2022-11-20 07:49:00+00:00,314.563,8.36,12.57,47.84626,-54.09684
2022-11-20 07:59:00+00:00,322.158,8.39,12.57,47.84626,-54.09684
2022-11-20 08:09:00+00:00,325.533,8.4,12.57,47.84626,-54.09684
2022-11-20 08:19:00+00:00,319.2813,8.4,12.57,47.84626,-54.09684
2022-11-20 08:29:00+00:00,316.5763,8.17,12.57,47.84626,-54.09684
2022-11-20 08:39:00+00:00,327.658,8.3,12.57,47.84626,-54.09684
2022-11-20 08:49:00+00:00,336.8346,8.39,12.57,47.84626,-54.09684
2022-11-20 08:59:00+00:00,330.8397,8.1,12.57,47.84626,-54.09684
2022-11-20 09:09:00+00:00,328.8029,8.3,12.57,47.84626,-54.09684
2022-11-20 09:19:00+00:00,334.1896,8.36,12.49,47.84626,-54.09684
2022-11-20 09:29:00+00:00,331.5897,8.39,12.49,47.84626,-54.09684
2022-11-20 09:39:00+00:00,318.9446,8.3,12.49,47.84626,-54.09684
2022-11-20 09:49:00+00:00,318.643,8.1,12.49,47.84626,-54.09684
2022-11-20 09:59:00+00:00,328.3746,8.06,12.49,47.84626,-54.09684
2022-11-20 10:09:00+00:00,322.8047,8.1,12.49,47.84626,-54.09684
2022-11-20 10:19:00+00:00,313.8896,7.99,12.49,47.84626,-54.09684
2022-11-20 10:29:00+00:00,312.0564,8.16,12.49,47.84626,-54.09684
2022-11-20 10:39:00+00:00,313.808,8.22,12.49,47.84626,-54.09684
2022-11-20 10:49:00+00:00,303.0297,7.87,12.49,47.84626,-54.09684
2022-11-20 10:59:00+00:00,297.1397,7.62,12.49,47.84626,-54.09684
2022-11-20 11:09:00+00:00,296.7764,8.03,12.49,47.84626,-54.09684
2022-11-20 11:19:00+00:00,292.6331,8.28,12.81,47.84626,-54.09684
2022-11-20 11:29:00+00:00,278.5281,8.3,12.81,47.84626,-54.09684
2022-11-20 11:39:00+00:00,274.8181,8.38,12.81,47.84626,-54.09684
2022-11-20 11:49:00+00:00,270.1898,8.39,12.81,47.84626,-54.09684
2022-11-20 11:59:00+00:00,258.4764,8.3,12.81,47.84626,-54.09684
2022-11-20 12:09:00+00:00,253.3514,8.2,12.81,47.84626,-54.09684
2022-11-20 12:19:00+00:00,260.8047,8.2,13.6,47.84626,-54.09684
2022-11-20 12:29:00+00:00,262.0131,8.2,13.6,47.84626,-54.09684
2022-11-20 12:39:00+00:00,251.7997,8.25,13.6,47.84626,-54.09684
2022-11-20 12:49:00+00:00,249.2531,8.29,13.6,47.84626,-54.09684
2022-11-20 12:59:00+00:00,257.2081,8.2,13.6,47.84626,-54.09684
2022-11-20 13:09:00+00:00,251.7448,8.1,13.6,47.84626,-54.09684
2022-11-20 13:19:01+00:00,232.4348,7.9,13.29,47.84626,-54.09684
2022-11-20 13:29:01+00:00,230.463,7.79,13.29,47.84626,-54.09684
2022-11-20 13:39:01+00:00,233.8264,7.8,13.29,47.84626,-54.09684
2022-11-20 13:49:01+00:00,227.4831,7.8,13.29,47.84626,-54.09684
2022-11-20 13:59:01+00:00,214.6514,7.78,13.29,47.84626,-54.09684
2022-11-20 14:09:01+00:00,212.7364,7.8,13.29,47.84626,-54.09684
2022-11-20 14:19:00+00:00,223.1848,7.8,15.27,47.84626,-54.09684
2022-11-20 14:29:00+00:00,220.4648,7.8,15.27,47.84626,-54.09684
2022-11-20 14:39:00+00:00,215.3298,7.89,15.27,47.84626,-54.09684
2022-11-20 14:49:00+00:00,224.2848,7.98,15.27,47.84626,-54.09684
2022-11-20 14:59:00+00:00,230.1248,8.05,15.27,47.84626,-54.09684
2022-11-20 15:09:00+00:00,226.8848,8.2,15.27,47.84626,-54.09684
2022-11-20 15:19:00+00:00,224.1364,8.32,15.04,47.84626,-54.09684
2022-11-20 15:29:00+00:00,226.7298,8.44,15.04,47.84626,-54.09684
2022-11-20 15:39:00+00:00,226.4481,8.47,15.04,47.84626,-54.09684
2022-11-20 15:49:00+00:00,221.9498,8.49,15.04,47.84626,-54.09684
2022-11-20 15:59:00+00:00,228.6531,8.5,15.04,47.84626,-54.09684
2022-11-20 16:09:00+00:00,238.8181,8.49,15.04,47.84626,-54.09684
2022-11-20 16:19:01+00:00,237.1631,8.47,13.76,47.84626,-54.09684
2022-11-20 16:29:01+00:00,234.8081,8.4,13.76,47.84626,-54.09684
2022-11-20 16:39:01+00:00,241.6014,8.4,13.76,47.84626,-54.09684
2022-11-20 16:49:01+00:00,250.06799999999998,8.4,13.76,47.84626,-54.09684
2022-11-20 16:59:01+00:00,248.0531,8.29,13.76,47.84626,-54.09684
2022-11-20 17:09:01+00:00,243.3831,8.1,13.76,47.84626,-54.09684
2022-11-20 17:19:00+00:00,244.0714,8.0,13.13,47.84626,-54.09684
2022-11-20 17:29:00+00:00,251.8364,7.9,13.13,47.84626,-54.09684
2022-11-20 17:39:00+00:00,261.528,7.97,13.13,47.84626,-54.09684
2022-11-20 17:49:00+00:00,273.868,8.1,13.13,47.84626,-54.09684
2022-11-20 17:59:00+00:00,276.3798,8.2,13.13,47.84626,-54.09684
2022-11-20 18:09:00+00:00,277.4614,8.1,13.13,47.84626,-54.09684
2022-11-20 18:19:01+00:00,278.9281,8.26,12.89,47.84626,-54.09684
2022-11-20 18:29:01+00:00,288.8764,8.3,12.89,47.84626,-54.09684
2022-11-20 18:39:01+00:00,304.5813,8.4,12.89,47.84626,-54.09684
2022-11-20 18:49:01+00:00,311.4063,8.44,12.89,47.84626,-54.09684
2022-11-20 18:59:01+00:00,314.1213,8.46,12.89,47.84626,-54.09684
2022-11-20 19:09:01+00:00,321.6596,8.4,12.89,47.84626,-54.09684
2022-11-20 19:19:00+00:00,330.6863,8.3,12.73,47.84626,-54.09684
2022-11-20 19:29:00+00:00,324.958,8.22,12.73,47.84626,-54.09684
2022-11-20 19:39:00+00:00,326.898,8.3,12.73,47.84626,-54.09684
2022-11-20 19:49:00+00:00,336.3879,8.3,12.73,47.84626,-54.09684
2022-11-20 19:59:00+00:00,343.8046,8.3,12.73,47.84626,-54.09684
2022-11-20 20:09:00+00:00,346.7762,8.3,12.73,47.84626,-54.09684
2022-11-20 20:19:00+00:00,346.3063,8.39,12.73,47.84626,-54.09684
2022-11-20 20:29:00+00:00,347.033,8.46,12.73,47.84626,-54.09684
2022-11-20 20:39:00+00:00,350.3013,8.49,12.73,47.84626,-54.09684
2022-11-20 20:49:00+00:00,354.1197,8.49,12.73,47.84626,-54.09684
2022-11-20 20:59:00+00:00,365.898,8.45,12.73,47.84626,-54.09684
2022-11-20 21:09:00+00:00,375.3163,8.42,12.73,47.84626,-54.09684
2022-11-20 21:19:00+00:00,370.9097,8.44,12.65,47.84626,-54.09684
2022-11-20 21:29:00+00:00,361.4747,8.5,12.65,47.84626,-54.09684
2022-11-20 21:39:00+00:00,360.3613,8.5,12.65,47.84626,-54.09684
2022-11-20 21:49:00+00:00,365.5897,8.49,12.65,47.84626,-54.09684
2022-11-20 21:59:00+00:00,361.8962,8.48,12.65,47.84626,-54.09684
2022-11-20 22:09:00+00:00,353.9446,8.47,12.65,47.84626,-54.09684
2022-11-20 22:19:00+00:00,360.3146,8.46,12.65,47.84626,-54.09684
2022-11-20 22:29:00+00:00,371.8063,8.4,12.65,47.84626,-54.09684
2022-11-20 22:39:00+00:00,358.3746,8.3,12.65,47.84626,-54.09684
2022-11-20 22:49:00+00:00,343.9946,8.17,12.65,47.84626,-54.09684
2022-11-20 22:59:00+00:00,350.923,8.1,12.65,47.84626,-54.09684
2022-11-20 23:09:00+00:00,354.0247,7.65,12.65,47.84626,-54.09684
2022-11-20 23:19:01+00:00,336.668,7.5,12.65,47.84626,-54.09684
2022-11-20 23:29:01+00:00,333.24300000000005,7.5,12.65,47.84626,-54.09684
2022-11-20 23:39:01+00:00,333.5346,7.4,12.65,47.84626,-54.09684
2022-11-20 23:49:01+00:00,324.6464,7.3,12.65,47.84626,-54.09684
2022-11-20 23:59:01+00:00,301.2797,7.3,12.65,47.84626,-54.09684
